Time,TemperatureF,DewpointF,PressureIn,WindDirection,WindDirectionDegrees,WindSpeedMPH,WindSpeedGustMPH,Humidity,HourlyPrecipIn,Conditions,Clouds,dailyrainin,SolarRadiationWatts/m^2,SoftwareType,DateUTC
2013-09-22 00:03:00,56.0,53.0,-100.00,North,357,2.0,5.0,90,0.00,,,2.20,0.000000,,2013-09-22 05:03:00,
2013-09-22 00:43:00,55.0,53.0,-100.00,North,4,3.0,5.0,93,0.00,,,1.81,0.000000,,2013-09-22 05:43:00,
2013-09-22 00:53:00,55.0,53.0,-100.00,North,4,3.0,5.0,93,0.00,,,1.81,0.000000,,2013-09-22 05:53:00,
2013-09-22 01:02:00,55.0,53.0,-100.00,North,4,3.0,5.0,93,0.00,,,1.81,0.000000,,2013-09-22 06:02:00,
2013-09-22 01:42:00,54.0,53.0,-100.00,North,2,3.0,5.0,95,0.00,,,1.48,0.000000,,2013-09-22 06:42:00,
2013-09-22 01:52:00,54.0,53.0,-100.00,North,2,3.0,5.0,95,0.00,,,1.48,0.000000,,2013-09-22 06:52:00,
2013-09-22 02:02:00,54.0,53.0,-100.00,North,2,3.0,5.0,95,0.00,,,1.48,0.000000,,2013-09-22 07:02:00,
2013-09-22 02:42:00,54.0,53.0,-100.00,NNE,13,3.0,5.0,96,0.00,,,1.33,0.000000,,2013-09-22 07:42:00,
2013-09-22 02:52:00,54.0,53.0,-100.00,NNE,13,3.0,5.0,96,0.00,,,1.33,0.000000,,2013-09-22 07:52:00,
2013-09-22 03:04:00,54.0,53.0,-100.00,NNE,13,3.0,5.0,96,0.00,,,1.33,0.000000,,2013-09-22 08:04:00,
2013-09-22 03:42:00,52.0,52.0,-100.00,NNW,334,0.0,3.0,100,0.00,,,0.89,0.000000,,2013-09-22 08:42:00,
2013-09-22 03:52:00,52.0,52.0,-100.00,NNW,334,0.0,3.0,100,0.00,,,0.89,0.000000,,2013-09-22 08:52:00,
2013-09-22 04:02:00,52.0,52.0,-100.00,NNW,334,0.0,3.0,100,0.00,,,0.89,0.000000,,2013-09-22 09:02:00,
2013-09-22 04:43:00,51.0,51.0,-100.00,NNE,22,2.0,3.0,100,0.00,,,0.29,0.000000,,2013-09-22 09:43:00,
2013-09-22 04:54:00,51.0,51.0,-100.00,NNE,22,2.0,3.0,100,0.00,,,0.29,0.000000,,2013-09-22 09:54:00,
2013-09-22 05:03:00,51.0,51.0,-100.00,NNE,22,2.0,3.0,100,0.00,,,0.29,0.000000,,2013-09-22 10:03:00,
2013-09-22 05:44:00,51.0,51.0,-100.00,NNE,16,2.0,3.0,100,0.00,,,0.12,0.000000,,2013-09-22 10:44:00,
2013-09-22 05:53:00,51.0,51.0,-100.00,NNE,16,2.0,3.0,100,0.00,,,0.12,0.000000,,2013-09-22 10:53:00,
2013-09-22 06:42:00,50.0,50.0,-100.00,NNE,14,3.0,4.0,100,0.00,,,0.08,0.000000,,2013-09-22 11:42:00,
2013-09-22 06:52:00,50.0,50.0,-100.00,NNE,14,3.0,4.0,100,0.00,,,0.08,0.000000,,2013-09-22 11:52:00,
2013-09-22 07:02:00,50.0,50.0,-100.00,NNE,14,3.0,4.0,100,0.00,,,0.08,0.000000,,2013-09-22 12:02:00,
2013-09-22 07:42:00,50.0,50.0,-100.00,NNE,19,2.0,3.0,100,0.00,,,0.06,5.000000,,2013-09-22 12:42:00,
2013-09-22 07:52:00,50.0,50.0,-100.00,NNE,19,2.0,3.0,100,0.00,,,0.06,5.000000,,2013-09-22 12:52:00,
2013-09-22 08:02:00,50.0,50.0,-100.00,NNE,19,2.0,3.0,100,0.00,,,0.06,5.000000,,2013-09-22 13:02:00,
2013-09-22 08:42:00,53.0,53.0,-100.00,NNE,15,3.0,5.0,99,0.00,,,0.03,18.000000,,2013-09-22 13:42:00,
2013-09-22 08:52:00,53.0,53.0,-100.00,NNE,15,3.0,5.0,99,0.00,,,0.03,18.000000,,2013-09-22 13:52:00,
2013-09-22 09:02:00,53.0,53.0,-100.00,NNE,15,3.0,5.0,99,0.00,,,0.03,18.000000,,2013-09-22 14:02:00,
2013-09-22 09:42:00,59.0,56.0,-100.00,NNE,21,3.0,6.0,90,0.00,,,0.00,107.000000,,2013-09-22 14:42:00,
2013-09-22 09:52:00,59.0,56.0,-100.00,NNE,21,3.0,6.0,90,0.00,,,0.00,107.000000,,2013-09-22 14:52:00,
2013-09-22 10:02:00,59.0,56.0,-100.00,NNE,21,3.0,6.0,90,0.00,,,0.00,107.000000,,2013-09-22 15:02:00,
2013-09-22 10:44:00,65.0,55.0,-100.00,North,9,4.0,9.0,69,0.00,,,0.00,481.000000,,2013-09-22 15:44:00,
2013-09-22 10:55:00,65.0,55.0,-100.00,North,9,4.0,9.0,69,0.00,,,0.00,481.000000,,2013-09-22 15:55:00,
2013-09-22 11:04:00,65.0,55.0,-100.00,North,9,4.0,9.0,69,0.00,,,0.00,481.000000,,2013-09-22 16:04:00,
2013-09-22 11:43:00,69.0,54.0,-100.00,NNE,22,5.0,10.0,58,0.00,,,0.00,606.000000,,2013-09-22 16:43:00,
2013-09-22 11:54:00,69.0,54.0,-100.00,NNE,22,5.0,10.0,58,0.00,,,0.00,606.000000,,2013-09-22 16:54:00,
2013-09-22 12:03:00,69.0,54.0,-100.00,NNE,22,5.0,10.0,58,0.00,,,0.00,606.000000,,2013-09-22 17:03:00,
2013-09-22 12:43:00,71.0,51.0,-100.00,North,7,6.0,11.0,50,0.00,,,0.00,703.000000,,2013-09-22 17:43:00,
2013-09-22 12:53:00,71.0,51.0,-100.00,North,7,6.0,11.0,50,0.00,,,0.00,703.000000,,2013-09-22 17:53:00,
2013-09-22 13:02:00,71.0,51.0,-100.00,North,7,6.0,11.0,50,0.00,,,0.00,703.000000,,2013-09-22 18:02:00,
2013-09-22 13:42:00,73.0,53.0,-100.00,NNE,29,4.0,11.0,49,0.00,,,0.00,728.000000,,2013-09-22 18:42:00,
2013-09-22 13:52:00,73.0,53.0,-100.00,NNE,29,4.0,11.0,49,0.00,,,0.00,728.000000,,2013-09-22 18:52:00,
2013-09-22 14:02:00,73.0,53.0,-100.00,NNE,29,4.0,11.0,49,0.00,,,0.00,728.000000,,2013-09-22 19:02:00,
2013-09-22 14:42:00,73.0,52.0,-100.00,North,355,6.0,12.0,48,0.00,,,0.00,704.000000,,2013-09-22 19:42:00,
2013-09-22 14:52:00,73.0,52.0,-100.00,North,355,6.0,12.0,48,0.00,,,0.00,704.000000,,2013-09-22 19:52:00,
2013-09-22 15:03:00,73.0,52.0,-100.00,North,355,6.0,12.0,48,0.00,,,0.00,704.000000,,2013-09-22 20:03:00,
2013-09-22 15:42:00,74.0,51.0,-100.00,NNE,33,4.0,12.0,45,0.00,,,0.00,625.000000,,2013-09-22 20:42:00,
2013-09-22 15:52:00,74.0,51.0,-100.00,NNE,33,4.0,12.0,45,0.00,,,0.00,625.000000,,2013-09-22 20:52:00,
2013-09-22 16:02:00,74.0,51.0,-100.00,NNE,33,4.0,12.0,45,0.00,,,0.00,625.000000,,2013-09-22 21:02:00,
2013-09-22 16:45:00,74.0,52.0,-100.00,NNE,15,6.0,11.0,47,0.00,,,0.00,499.000000,,2013-09-22 21:45:00,
2013-09-22 16:54:00,74.0,52.0,-100.00,NNE,15,6.0,11.0,47,0.00,,,0.00,499.000000,,2013-09-22 21:54:00,
2013-09-22 17:04:00,74.0,52.0,-100.00,NNE,15,6.0,11.0,47,0.00,,,0.00,499.000000,,2013-09-22 22:04:00,
2013-09-22 17:43:00,70.0,50.0,-100.00,NNE,29,4.0,9.0,49,0.00,,,0.00,305.000000,,2013-09-22 22:43:00,
2013-09-22 17:54:00,70.0,50.0,-100.00,NNE,29,4.0,9.0,49,0.00,,,0.00,305.000000,,2013-09-22 22:54:00,
2013-09-22 18:03:00,70.0,50.0,-100.00,NNE,29,4.0,9.0,49,0.00,,,0.00,305.000000,,2013-09-22 23:03:00,
2013-09-22 18:43:00,67.0,51.0,-100.00,NNE,15,3.0,9.0,56,0.00,,,0.00,25.000000,,2013-09-22 23:43:00,
2013-09-22 18:52:00,67.0,51.0,-100.00,NNE,15,3.0,9.0,56,0.00,,,0.00,25.000000,,2013-09-22 23:52:00,
2013-09-22 19:01:00,67.0,51.0,-100.00,NNE,15,3.0,9.0,56,0.00,,,0.00,25.000000,,2013-09-23 00:01:00,
2013-09-22 19:42:00,62.0,51.0,-100.00,NNE,16,2.0,4.0,67,0.00,,,0.00,7.000000,,2013-09-23 00:42:00,
2013-09-22 19:53:00,62.0,51.0,-100.00,NNE,16,2.0,4.0,67,0.00,,,0.00,7.000000,,2013-09-23 00:53:00,
2013-09-22 20:01:00,62.0,51.0,-100.00,NNE,16,2.0,4.0,67,0.00,,,0.00,7.000000,,2013-09-23 01:01:00,
2013-09-22 20:43:00,60.0,53.0,-100.00,NNE,26,3.0,5.0,77,0.00,,,0.00,0.000000,,2013-09-23 01:43:00,
2013-09-22 20:52:00,60.0,53.0,-100.00,NNE,26,3.0,5.0,77,0.00,,,0.00,0.000000,,2013-09-23 01:52:00,
2013-09-22 21:02:00,60.0,53.0,-100.00,NNE,26,3.0,5.0,77,0.00,,,0.00,0.000000,,2013-09-23 02:02:00,
2013-09-22 21:42:00,58.0,54.0,-100.00,NNE,23,3.0,5.0,85,0.00,,,0.00,0.000000,,2013-09-23 02:42:00,
2013-09-22 21:52:00,58.0,54.0,-100.00,NNE,23,3.0,5.0,85,0.00,,,0.00,0.000000,,2013-09-23 02:52:00,
2013-09-22 22:03:00,58.0,54.0,-100.00,NNE,23,3.0,5.0,85,0.00,,,0.00,0.000000,,2013-09-23 03:03:00,
2013-09-22 22:44:00,56.0,53.0,-100.00,NNE,28,2.0,4.0,91,0.00,,,0.00,0.000000,,2013-09-23 03:44:00,
2013-09-22 22:54:00,56.0,53.0,-100.00,NNE,28,2.0,4.0,91,0.00,,,0.00,0.000000,,2013-09-23 03:54:00,
2013-09-22 23:05:00,56.0,53.0,-100.00,NNE,28,2.0,4.0,91,0.00,,,0.00,0.000000,,2013-09-23 04:05:00,
2013-09-22 23:43:00,54.0,53.0,-100.00,NE,40,1.0,4.0,96,0.00,,,0.00,0.000000,,2013-09-23 04:43:00,
2013-09-22 23:54:00,54.0,53.0,-100.00,NE,40,1.0,4.0,96,0.00,,,0.00,0.000000,,2013-09-23 04:54:00,